Location: Neuvy Saint Sepulchre
(46.5953°N, 1.8122°E)
Time: 13:15:10
(UTC+02:00)

ISS - Pass Details

Date: 18 September 2022
Orbit: 414 x 417 km, 51.6° (Epoch: 01 October)

Event Time Altitude Azimuth Distance (km) Brightness Sun altitude
Rises 21:19:01 0° 244° (WSW) 2,356 0.8 -14.4°
Reaches altitude 10° 21:21:06 10° 246° (WSW) 1,495 -0.3 -14.7°
Maximum altitude 21:24:28 83° 333° (NNW) 427 -3.8 -15.3°
Enters shadow 21:26:19 25° 61° (ENE) 897 -2.5 -15.6°
